OK,55,38,870,55,2014-10-01T01:40:00,0,28072640,179119
OK,55,38,870,55,2014-10-01T01:45:00,0,28073087,179119
OK,55,38,870,55,2014-10-01T01:50:00,0,28073536,179119
OK,55,38,870,55,2014-10-01T01:55:00,0,28073853,179119
OK,55,38,870,55,2014-10-01T02:00:00,0,28074302,179119
OK,55,38,870,55,2014-10-01T02:05:00,0,28074744,179119
OK,55,38,870,55,2014-10-01T02:10:00,0,28075191,179119
OK,55,38,870,55,2014-10-01T02:15:00,0,28075640,179119
OK,55,38,870,55,2014-10-01T02:20:00,0,28076027,179119
OK,55,38,870,55,2014-10-01T02:25:00,0,28076472,179119
OK,55,38,870,55,2014-10-01T02:30:00,0,28076921,179119
OK,55,38,870,55,2014-10-01T02:35:00,0,28077370,179119
OK,55,38,870,55,2014-10-01T02:40:00,0,28077774,179119
OK,52,40,870,52,2014-10-01T02:45:00,1,28078222,179119
OK,52,40,870,52,2014-10-01T02:50:00,0,28078667,179119
OK,52,40,870,52,2014-10-01T02:55:00,0,28079116,179119
OK,52,40,870,52,2014-10-01T03:00:00,0,28079558,179119
OK,52,40,870,52,2014-10-01T03:05:00,0,28080007,179119
OK,58,36,870,58,2014-10-01T03:10:00,4,28080343,179119
OK,48,43,870,48,2014-10-01T03:15:00,5,28080790,179119
OK,53,39,870,53,2014-10-01T03:20:00,2,28081239,179119
OK,35,60,870,35,2014-10-01T03:25:00,3,28081686,179119
OK,35,60,870,35,2014-10-01T03:30:00,3,28082135,179119
OK,27,78,870,27,2014-10-01T03:35:00,1,28082570,179119
OK,65,32,870,65,2014-10-01T03:40:00,11,28083000,179119
OK,59,35,870,59,2014-10-01T03:45:00,11,28083449,179119
OK,60,35,870,60,2014-10-01T03:50:00,11,28083898,179119
OK,51,41,870,51,2014-10-01T03:55:00,16,28084340,179119
OK,49,42,870,49,2014-10-01T04:00:00,5,28084767,179119
OK,54,39,870,54,2014-10-01T04:05:00,2,28085213,179119
OK,36,58,870,36,2014-10-01T04:10:00,8,28085658,179119
OK,36,58,870,36,2014-10-01T04:15:00,6,28086107,179119
OK,57,36,870,57,2014-10-01T04:20:00,3,28086549,179119
OK,56,37,870,56,2014-10-01T04:25:00,8,28086998,179119
OK,55,38,870,55,2014-10-01T04:30:00,15,28087443,179119
OK,60,35,870,60,2014-10-01T04:35:00,9,28087892,179119
OK,56,37,870,56,2014-10-01T04:40:00,10,28088318,179119
OK,57,36,870,57,2014-10-01T04:45:00,20,28088765,179119
OK,57,36,870,57,2014-10-01T04:50:00,27,28089196,179119
OK,53,39,870,53,2014-10-01T04:55:00,16,28089644,179119
OK,55,38,870,55,2014-10-01T05:05:00,22,28090093,179119
OK,45,46,870,45,2014-10-01T05:10:00,9,28090886,179119
OK,47,44,870,47,2014-10-01T05:15:00,8,28091335,179119
OK,52,40,870,52,2014-10-01T05:20:00,14,28091753,179119
OK,51,41,870,51,2014-10-01T05:25:00,14,28092201,179119
OK,51,41,870,51,2014-10-01T05:30:00,25,28092646,179119
OK,56,37,870,56,2014-10-01T05:35:00,10,28093086,179119
OK,63,33,870,63,2014-10-01T05:40:00,12,28093517,179119
OK,66,31,870,66,2014-10-01T05:45:00,18,28093966,179119
OK,61,34,870,61,2014-10-01T05:50:00,17,28094380,179119
OK,60,35,870,60,2014-10-01T05:55:00,22,28094822,179119
OK,65,32,870,65,2014-10-01T06:00:00,22,28095269,179119
OK,64,32,870,64,2014-10-01T06:05:00,16,28095718,179119
OK,62,33,870,62,2014-10-01T06:10:00,17,28096132,179119
OK,64,32,870,64,2014-10-01T06:15:00,18,28096580,179119
OK,72,29,870,72,2014-10-01T06:20:00,4,28097015,179119
OK,73,28,870,73,2014-10-01T06:25:00,28,28097463,179119
OK,81,26,870,81,2014-10-01T06:30:00,25,28097912,179119
OK,70,30,870,70,2014-10-01T06:35:00,22,28098351,179119
OK,83,25,870,83,2014-10-01T06:40:00,17,28098793,179119
OK,67,31,870,67,2014-10-01T06:45:00,22,28099241,179119
OK,62,33,870,62,2014-10-01T06:50:00,23,28099586,179119
OK,64,32,870,64,2014-10-01T06:55:00,28,28100033,179119
OK,63,33,870,63,2014-10-01T07:00:00,10,28100342,179119
OK,66,31,870,66,2014-10-01T07:05:00,12,28100789,179119
OK,50,42,870,50,2014-10-01T07:10:00,12,28101161,179119
OK,39,54,870,39,2014-10-01T07:15:00,13,28101609,179119
OK,40,52,870,40,2014-10-01T07:20:00,15,28102046,179119
OK,36,58,870,36,2014-10-01T07:25:00,11,28102494,179119
OK,60,35,870,60,2014-10-01T07:30:00,13,28102925,179119
OK,57,36,870,57,2014-10-01T07:35:00,24,28103368,179119
OK,55,38,870,55,2014-10-01T07:40:00,21,28103813,179119
OK,66,31,870,66,2014-10-01T07:45:00,16,28104258,179119
OK,68,30,870,68,2014-10-01T07:50:00,22,28104700,179119
OK,61,34,870,61,2014-10-01T07:55:00,18,28105144,179119
OK,64,32,870,64,2014-10-01T08:00:00,14,28105585,179119
OK,52,40,870,52,2014-10-01T08:05:00,7,28106033,179119
OK,38,55,870,38,2014-10-01T08:10:00,3,28106470,179119
OK,38,55,870,38,2014-10-01T08:15:00,3,28106878,179119
OK,46,45,870,46,2014-10-01T08:20:00,13,28107308,179119
OK,44,47,870,44,2014-10-01T08:25:00,12,28107757,179119
OK,54,39,870,54,2014-10-01T08:30:00,11,28108196,179119
OK,54,39,870,54,2014-10-01T08:35:00,10,28108645,179119
OK,55,38,870,55,2014-10-01T08:40:00,8,28109074,179119
OK,55,38,870,55,2014-10-01T08:45:00,12,28109522,179119
OK,46,45,870,46,2014-10-01T08:50:00,9,28109866,179119
OK,48,43,870,48,2014-10-01T08:55:00,14,28110314,179119
OK,45,46,870,45,2014-10-01T09:00:00,15,28110737,179119
OK,59,35,870,59,2014-10-01T09:05:00,12,28111186,179119
OK,62,33,870,62,2014-10-01T09:10:00,5,28111615,179119
OK,55,38,870,55,2014-10-01T09:15:00,15,28112064,179119
OK,59,35,870,59,2014-10-01T09:20:00,22,28112406,179119
OK,67,31,870,67,2014-10-01T09:25:00,15,28112854,179119
OK,74,28,870,74,2014-10-01T09:30:00,8,28113279,179119
OK,41,51,870,41,2014-10-01T09:35:00,20,28113727,179119
OK,41,51,870,41,2014-10-01T09:40:00,23,28114159,179119
OK,41,51,870,41,2014-10-01T09:45:00,16,28114608,179119
OK,44,47,870,44,2014-10-01T09:50:00,15,28114963,179119
OK,51,41,870,51,2014-10-01T09:55:00,9,28115411,179119
OK,51,41,870,51,2014-10-01T10:00:00,13,28115824,179119
OK,51,41,870,51,2014-10-01T10:05:00,13,28116272,179119
OK,49,42,870,49,2014-10-01T10:10:00,12,28116681,179119
OK,45,46,870,45,2014-10-01T10:15:00,10,28117129,179119
OK,41,51,870,41,2014-10-01T10:20:00,7,28117554,179119
OK,37,56,870,37,2014-10-01T10:25:00,17,28118003,179119
OK,45,46,870,45,2014-10-01T10:30:00,17,28118448,179119
OK,46,45,870,46,2014-10-01T10:35:00,5,28118895,179119
OK,35,60,870,35,2014-10-01T10:40:00,2,28119339,179119
OK,35,60,870,35,2014-10-01T10:45:00,9,28119787,179119
OK,35,60,870,35,2014-10-01T10:50:00,9,28120235,179119
OK,41,51,870,41,2014-10-01T10:55:00,6,28120684,179119
OK,62,33,870,62,2014-10-01T11:00:00,9,28121068,179119
OK,47,44,870,47,2014-10-01T11:05:00,12,28121516,179119
OK,47,44,870,47,2014-10-01T11:10:00,12,28121955,179119
OK,60,35,870,60,2014-10-01T11:15:00,12,28122403,179119
OK,66,31,870,66,2014-10-01T11:20:00,12,28122845,179119
OK,67,31,870,67,2014-10-01T11:25:00,9,28123293,179119
OK,49,42,870,49,2014-10-01T11:30:00,7,28123726,179119
OK,61,34,870,61,2014-10-01T11:35:00,8,28124174,179119
OK,61,34,870,61,2014-10-01T11:40:00,7,28124578,179119
OK,59,35,870,59,2014-10-01T11:45:00,5,28125025,179119
OK,36,58,870,36,2014-10-01T11:50:00,8,28125454,179119
OK,55,38,870,55,2014-10-01T11:55:00,16,28125903,179119
OK,60,35,870,60,2014-10-01T12:00:00,12,28126256,179119
OK,53,39,870,53,2014-10-01T12:05:00,5,28126704,179119
OK,42,50,870,42,2014-10-01T12:10:00,5,28127153,179119
OK,41,51,870,41,2014-10-01T12:15:00,8,28127602,179119
OK,46,45,870,46,2014-10-01T12:20:00,9,28128031,179119
OK,59,35,870,59,2014-10-01T12:25:00,7,28128479,179119
OK,59,35,870,59,2014-10-01T12:30:00,7,28128914,179119
OK,56,37,870,56,2014-10-01T12:35:00,14,28129363,179119
OK,51,41,870,51,2014-10-01T12:40:00,13,28129798,179119
OK,71,29,870,71,2014-10-01T12:45:00,8,28130246,179119
OK,72,29,870,72,2014-10-01T12:50:00,8,28130675,179119
OK,73,28,870,73,2014-10-01T12:55:00,20,28131123,179119
OK,72,29,870,72,2014-10-01T13:00:00,17,28131561,179119
OK,41,51,870,41,2014-10-01T13:05:00,16,28132009,179119
OK,45,46,870,45,2014-10-01T13:10:00,12,28132448,179119
OK,42,50,870,42,2014-10-01T13:15:00,5,28132894,179119
OK,53,39,870,53,2014-10-01T13:20:00,5,28133332,179119
OK,43,48,870,43,2014-10-01T13:25:00,7,28133781,179119
OK,55,38,870,55,2014-10-01T13:30:00,12,28134220,179119
OK,55,38,870,55,2014-10-01T13:35:00,8,28134669,179119
OK,43,48,870,43,2014-10-01T13:40:00,5,28135089,179119
OK,43,48,870,43,2014-10-01T13:45:00,8,28135537,179119
OK,58,36,870,58,2014-10-01T13:50:00,7,28135974,179119
OK,63,33,870,63,2014-10-01T13:55:00,9,28136423,179119
OK,78,27,870,78,2014-10-01T14:00:00,9,28136863,179119
OK,55,38,870,55,2014-10-01T14:05:00,10,28137312,179119
OK,62,33,870,62,2014-10-01T14:10:00,10,28137746,179119
OK,55,38,870,55,2014-10-01T14:15:00,0,28138195,179119
OK,65,32,870,65,2014-10-01T14:20:00,10,28138624,179119
OK,64,32,870,64,2014-10-01T14:25:00,9,28139072,179119
OK,41,51,870,41,2014-10-01T14:30:00,10,28139484,179119
OK,40,52,870,40,2014-10-01T14:35:00,10,28139932,179119
OK,47,44,870,47,2014-10-01T14:40:00,8,28140375,179119
OK,48,43,870,48,2014-10-01T14:45:00,7,28140823,179119
OK,66,31,870,66,2014-10-01T14:50:00,7,28141250,179119
OK,54,39,870,54,2014-10-01T14:55:00,19,28141698,179119
OK,54,39,870,54,2014-10-01T15:00:00,17,28142127,179119
OK,54,39,870,54,2014-10-01T15:05:00,5,28142575,179119
OK,50,42,870,50,2014-10-01T15:10:00,2,28143003,179119
OK,69,30,870,69,2014-10-01T15:15:00,8,28143451,179119
OK,67,31,870,67,2014-10-01T15:20:00,21,28143899,179119
OK,63,33,870,63,2014-10-01T15:25:00,18,28144348,179119
OK,36,58,870,36,2014-10-01T15:30:00,7,28144771,179119
OK,62,33,870,62,2014-10-01T15:35:00,5,28145183,179119
OK,42,50,870,42,2014-10-01T15:40:00,6,28145632,179119
OK,45,46,870,45,2014-10-01T15:45:00,6,28146081,179119
OK,55,38,870,55,2014-10-01T15:50:00,11,28146530,179119
OK,62,33,870,62,2014-10-01T15:55:00,11,28146940,179119
OK,39,54,870,39,2014-10-01T16:00:00,6,28147382,179119
OK,45,46,870,45,2014-10-01T16:05:00,7,28147831,179119
OK,38,55,870,38,2014-10-01T16:10:00,5,28148233,179119
OK,38,55,870,38,2014-10-01T16:15:00,3,28148681,179119
OK,49,42,870,49,2014-10-01T16:20:00,4,28149121,179119
OK,60,35,870,60,2014-10-01T16:25:00,4,28149569,179119
OK,113,18,870,113,2014-10-01T16:30:00,2,28149996,179119
OK,67,31,870,67,2014-10-01T16:35:00,5,28150444,179119
OK,57,36,870,57,2014-10-01T16:40:00,2,28150863,179119
OK,35,60,870,35,2014-10-01T16:45:00,3,28151311,179119
OK,35,60,870,35,2014-10-01T16:50:00,7,28151760,179119
OK,49,42,870,49,2014-10-01T17:00:00,5,28152209,179119
OK,57,36,870,57,2014-10-01T17:05:00,2,28152655,179119
OK,52,40,870,52,2014-10-01T17:10:00,3,28153102,179119
OK,42,50,870,42,2014-10-01T17:15:00,2,28153551,179119
OK,37,56,870,37,2014-10-01T17:20:00,3,28153962,179119
OK,62,33,870,62,2014-10-01T17:25:00,5,28154410,179119
OK,78,27,870,78,2014-10-01T17:30:00,2,28154852,179119
OK,69,30,870,69,2014-10-01T17:35:00,0,28155300,179119
OK,34,61,870,34,2014-10-01T17:40:00,1,28155720,179119
OK,34,61,870,34,2014-10-01T17:45:00,1,28156167,179119
OK,64,32,870,64,2014-10-01T17:50:00,1,28156616,179119
OK,49,42,870,49,2014-10-01T17:55:00,2,28157054,179119
OK,30,70,870,30,2014-10-01T18:00:00,2,28157485,179119
OK,30,70,870,30,2014-10-01T18:05:00,0,28157932,179119
OK,35,60,870,35,2014-10-01T18:10:00,2,28158376,179119
OK,38,55,870,38,2014-10-01T18:15:00,4,28158822,179119
OK,46,45,870,46,2014-10-01T18:20:00,1,28159268,179119
OK,31,67,870,31,2014-10-01T18:25:00,1,28159604,179119
OK,52,40,870,52,2014-10-01T18:30:00,2,28160052,179119
OK,40,52,870,40,2014-10-01T18:35:00,2,28160501,179119
OK,30,70,870,30,2014-10-01T18:40:00,1,28160940,179119
OK,30,70,870,30,2014-10-01T18:45:00,0,28161388,179119
OK,30,70,870,30,2014-10-01T18:50:00,0,28161805,179119
OK,46,45,870,46,2014-10-01T18:55:00,1,28162254,179119
OK,46,45,870,46,2014-10-01T19:00:00,0,28162652,179119
OK,61,34,870,61,2014-10-01T19:05:00,1,28163087,179119
OK,61,34,870,61,2014-10-01T19:10:00,0,28163535,179119
OK,61,34,870,61,2014-10-01T19:15:00,0,28163984,179119
OK,64,32,870,64,2014-10-01T19:20:00,1,28164416,179119
OK,39,54,870,39,2014-10-01T19:25:00,3,28164864,179119
OK,49,42,870,49,2014-10-01T19:30:00,1,28165290,179119
OK,52,40,870,52,2014-10-01T19:35:00,5,28165737,179119
OK,60,35,870,60,2014-10-01T19:40:00,4,28166178,179119
OK,50,42,870,50,2014-10-01T19:45:00,0,28166540,179119
OK,43,48,870,43,2014-10-01T19:50:00,1,28166989,179119
OK,51,41,870,51,2014-10-01T19:55:00,2,28167418,179119
OK,54,39,870,54,2014-10-01T20:00:00,3,28167852,179119
OK,46,45,870,46,2014-10-01T20:05:00,2,28168300,179119
OK,65,32,870,65,2014-10-01T20:10:00,1,28168745,179119
OK,114,18,870,114,2014-10-01T20:15:00,2,28169194,179119
OK,164,12,870,164,2014-10-01T20:20:00,1,28169642,179119
OK,164,12,870,164,2014-10-01T20:25:00,0,28170068,179119
OK,164,12,870,164,2014-10-01T20:30:00,0,28170513,179119
OK,164,12,870,164,2014-10-01T20:35:00,0,28170961,179119
OK,164,12,870,164,2014-10-01T20:40:00,0,28171398,179119
OK,164,12,870,164,2014-10-01T20:45:00,0,28171844,179119
OK,164,12,870,164,2014-10-01T20:50:00,0,28172292,179119
OK,164,12,870,164,2014-10-01T20:55:00,0,28172738,179119
OK,164,12,870,164,2014-10-01T21:00:00,0,28173184,179119
OK,164,12,870,164,2014-10-01T21:05:00,0,28173633,179119
OK,88,23,870,88,2014-10-01T21:10:00,1,28174074,179119
OK,43,48,870,43,2014-10-01T21:15:00,1,28174523,179119
OK,43,48,870,43,2014-10-01T21:20:00,1,28174949,179119
OK,43,48,870,43,2014-10-01T21:25:00,0,28175345,179119
OK,43,48,870,43,2014-10-01T21:30:00,0,28175794,179119
OK,43,48,870,43,2014-10-01T21:35:00,0,28176243,179119
OK,43,48,870,43,2014-10-01T21:40:00,0,28176692,179119
OK,43,48,870,43,2014-10-01T21:45:00,0,28177052,179119
OK,43,48,870,43,2014-10-01T21:50:00,0,28177488,179119
OK,43,48,870,43,2014-10-01T21:55:00,0,28177934,179119
OK,43,48,870,43,2014-10-01T22:00:00,0,28178383,179119
OK,43,48,870,43,2014-10-01T22:05:00,0,28178830,179119
OK,43,48,870,43,2014-10-01T22:10:00,0,28179265,179119
OK,76,27,870,76,2014-10-01T22:15:00,0,28179707,179119
OK,76,27,870,76,2014-10-01T22:20:00,0,28180154,179119
OK,76,27,870,76,2014-10-01T22:25:00,0,28180552,179119
OK,76,27,870,76,2014-10-01T22:30:00,0,28181001,179119
OK,76,27,870,76,2014-10-01T22:35:00,0,28181425,179119
OK,76,27,870,76,2014-10-01T22:40:00,0,28181873,179119
OK,76,27,870,76,2014-10-01T22:45:00,0,28182320,179119
OK,42,50,870,42,2014-10-01T22:50:00,1,28182769,179119
OK,42,50,870,42,2014-10-01T22:55:00,0,28183186,179119
OK,42,50,870,42,2014-10-01T23:00:00,0,28183619,179119
OK,42,50,870,42,2014-10-01T23:05:00,0,28184064,179119
OK,42,50,870,42,2014-10-01T23:10:00,0,28184513,179119
OK,42,50,870,42,2014-10-01T23:15:00,0,28184948,179119
OK,42,50,870,42,2014-10-01T23:20:00,0,28185396,179119
OK,42,50,870,42,2014-10-01T23:25:00,0,28185827,179119
OK,42,50,870,42,2014-10-01T23:30:00,0,28186219,179119
OK,42,50,870,42,2014-10-01T23:40:00,0,28187066,179119
OK,42,50,870,42,2014-10-01T23:55:00,0,28188398,179119
OK,42,50,870,42,2014-10-02T00:00:00,0,28188834,179119
OK,42,50,870,42,2014-10-02T00:05:00,0,28189283,179119
OK,42,50,870,42,2014-10-02T00:10:00,0,28189706,179119
OK,42,50,870,42,2014-10-02T00:15:00,0,28190154,179119
OK,42,50,870,42,2014-10-02T00:20:00,0,28190508,179119
OK,42,50,870,42,2014-10-02T00:25:00,0,28190956,179119
OK,42,50,870,42,2014-10-02T00:30:00,0,28191405,179119
OK,42,50,870,42,2014-10-02T00:35:00,0,28191712,179119
OK,42,50,870,42,2014-10-02T00:40:00,0,28192160,179119
OK,42,50,870,42,2014-10-02T00:45:00,0,28192593,179119
OK,42,50,870,42,2014-10-02T00:50:00,0,28193037,179119
OK,42,50,870,42,2014-10-02T00:55:00,0,28193404,179119
OK,42,50,870,42,2014-10-02T01:05:00,0,28194302,179119
OK,42,50,870,42,2014-10-02T01:15:00,0,28194751,179119
OK,42,50,870,42,2014-10-02T01:20:00,0,28195436,179119
OK,42,50,870,42,2014-10-02T01:30:00,0,28195885,179119
OK,42,50,870,42,2014-10-02T01:35:00,0,28196618,179119
OK,42,50,870,42,2014-10-02T01:40:00,0,28197042,179119
OK,42,50,870,42,2014-10-02T01:45:00,0,28197490,179119
OK,42,50,870,42,2014-10-02T01:50:00,0,28197938,179119
OK,42,50,870,42,2014-10-02T01:55:00,0,28198386,179119
OK,42,50,870,42,2014-10-02T02:00:00,0,28198835,179119
OK,42,50,870,42,2014-10-02T02:05:00,0,28199212,179119
OK,42,50,870,42,2014-10-02T02:10:00,0,28199649,179119
OK,42,50,870,42,2014-10-02T02:15:00,0,28200091,179119
OK,42,50,870,42,2014-10-02T02:20:00,0,28200534,179119
OK,42,50,870,42,2014-10-02T02:25:00,0,28200983,179119
OK,60,35,870,60,2014-10-02T02:30:00,1,28201414,179119
OK,60,35,870,60,2014-10-02T02:45:00,0,28202312,179119
OK,60,35,870,60,2014-10-02T02:50:00,0,28202754,179119
OK,60,35,870,60,2014-10-02T02:55:00,0,28203202,179119
OK,60,35,870,60,2014-10-02T03:00:00,0,28203637,179119
OK,60,35,870,60,2014-10-02T03:10:00,0,28204086,179119
OK,77,27,870,77,2014-10-02T03:25:00,1,28204535,179119
OK,77,27,870,77,2014-10-02T03:30:00,0,28204984,179119
OK,62,33,870,62,2014-10-02T03:35:00,5,28205413,179119
OK,40,52,870,40,2014-10-02T03:40:00,0,28205859,179119
OK,33,63,870,33,2014-10-02T03:45:00,7,28206242,179119
OK,50,42,870,50,2014-10-02T03:55:00,0,28207140,179119
OK,61,34,870,61,2014-10-02T04:00:00,6,28207561,179119
OK,66,31,870,66,2014-10-02T04:05:00,1,28208008,179119
OK,36,58,870,36,2014-10-02T04:10:00,9,28208436,179119
OK,35,60,870,35,2014-10-02T04:15:00,0,28208884,179119
OK,45,46,870,45,2014-10-02T04:20:00,9,28209322,179119
OK,49,42,870,49,2014-10-02T04:25:00,2,28209771,179119
OK,35,60,870,35,2014-10-02T04:30:00,2,28210194,179119
OK,35,60,870,35,2014-10-02T04:35:00,2,28210643,179119
OK,75,28,870,75,2014-10-02T04:40:00,7,28211069,179119
OK,55,38,870,55,2014-10-02T04:45:00,2,28211512,179119
OK,55,38,870,55,2014-10-02T04:50:00,0,28211890,179119
OK,58,36,870,58,2014-10-02T04:55:00,7,28212339,179119
OK,41,51,870,41,2014-10-02T05:00:00,0,28212768,179119
OK,49,42,870,49,2014-10-02T05:05:00,12,28213217,179119
OK,38,55,870,38,2014-10-02T05:10:00,1,28213655,179119
OK,50,42,870,50,2014-10-02T05:15:00,12,28214104,179119
OK,39,54,870,39,2014-10-02T05:20:00,1,28214518,179119
OK,38,55,870,38,2014-10-02T05:25:00,12,28214966,179119
OK,43,48,870,43,2014-10-02T05:30:00,5,28215383,179119
OK,52,40,870,52,2014-10-02T05:40:00,16,28215831,179119
OK,46,45,870,46,2014-10-02T05:45:00,7,28216610,179119
OK,51,41,870,51,2014-10-02T05:50:00,0,28217057,179119
OK,71,29,870,71,2014-10-02T05:55:00,18,28217506,179119
OK,69,30,870,69,2014-10-02T06:00:00,20,28217945,179119
OK,70,30,870,70,2014-10-02T06:05:00,16,28218394,179119
OK,68,30,870,68,2014-10-02T06:10:00,5,28218814,179119
OK,65,32,870,65,2014-10-02T06:15:00,17,28219263,179119
OK,53,39,870,53,2014-10-02T06:20:00,17,28219637,179119
OK,52,40,870,52,2014-10-02T06:25:00,13,28220085,179119
OK,69,30,870,69,2014-10-02T06:30:00,10,28220520,179119
OK,59,35,870,59,2014-10-02T06:35:00,13,28220968,179119
OK,44,47,870,44,2014-10-02T06:40:00,21,28221354,179119
OK,44,47,870,44,2014-10-02T06:45:00,19,28221635,179119
OK,51,41,870,51,2014-10-02T07:00:00,18,28222229,179119
OK,48,43,870,48,2014-10-02T07:05:00,25,28222678,179119
OK,49,42,870,49,2014-10-02T07:10:00,20,28223110,179119
OK,55,38,870,55,2014-10-02T07:15:00,5,28223545,179119
OK,55,38,870,55,2014-10-02T07:20:00,0,28223992,179119
OK,52,40,870,52,2014-10-02T07:25:00,6,28224347,179119
OK,43,48,870,43,2014-10-02T07:30:00,2,28224796,179119
OK,63,33,870,63,2014-10-02T07:35:00,15,28225245,179119
OK,83,25,870,83,2014-10-02T07:40:00,8,28225569,179119
OK,53,39,870,53,2014-10-02T07:50:00,12,28226457,179119
OK,55,38,870,55,2014-10-02T07:55:00,11,28226906,179119
OK,59,35,870,59,2014-10-02T08:00:00,8,28227322,179119
OK,54,39,870,54,2014-10-02T08:05:00,10,28227770,179119
OK,45,46,870,45,2014-10-02T08:10:00,0,28228130,179119
OK,44,47,870,44,2014-10-02T08:15:00,10,28228578,179119
OK,40,52,870,40,2014-10-02T08:20:00,4,28228989,179119
OK,46,45,870,46,2014-10-02T08:25:00,8,28229437,179119
OK,33,63,870,33,2014-10-02T08:30:00,2,28229788,179119
OK,42,50,870,42,2014-10-02T08:35:00,7,28230236,179119
OK,44,47,870,44,2014-10-02T08:40:00,2,28230606,179119
OK,41,51,870,41,2014-10-02T08:45:00,0,28231051,179119
OK,39,54,870,39,2014-10-02T08:50:00,3,28231474,179119
OK,57,36,870,57,2014-10-02T08:55:00,2,28231923,179119
OK,39,54,870,39,2014-10-02T09:00:00,10,28232266,179119
OK,81,26,870,81,2014-10-02T09:10:00,0,28232714,179119
OK,52,40,870,52,2014-10-02T09:15:00,12,28233163,179119
OK,48,43,870,48,2014-10-02T09:20:00,4,28233587,179119
OK,74,28,870,74,2014-10-02T09:25:00,16,28234036,179119
OK,73,28,870,73,2014-10-02T09:30:00,7,28234370,179119
OK,63,33,870,63,2014-10-02T09:35:00,15,28234818,179119
OK,63,33,870,63,2014-10-02T09:40:00,10,28235245,179119
OK,52,40,870,52,2014-10-02T09:45:00,9,28235694,179119
OK,45,46,870,45,2014-10-02T09:50:00,2,28236138,179119
OK,54,39,870,54,2014-10-02T09:55:00,8,28236584,179119
OK,62,33,870,62,2014-10-02T10:00:00,2,28236987,179119
OK,62,33,870,62,2014-10-02T10:05:00,0,28237435,179119
OK,69,30,870,69,2014-10-02T10:10:00,8,28237883,179119
OK,59,35,870,59,2014-10-02T10:15:00,13,28238331,179119
OK,47,44,870,47,2014-10-02T10:20:00,16,28238771,179119
OK,54,39,870,54,2014-10-02T10:25:00,4,28239220,179119
OK,63,33,870,63,2014-10-02T10:30:00,0,28239651,179119
OK,56,37,870,56,2014-10-02T10:35:00,7,28240099,179119
OK,59,35,870,59,2014-10-02T10:40:00,7,28240544,179119
OK,68,30,870,68,2014-10-02T10:45:00,11,28240992,179119
OK,71,29,870,71,2014-10-02T10:50:00,5,28241425,179119
OK,41,51,870,41,2014-10-02T10:55:00,14,28241872,179119
OK,54,39,870,54,2014-10-02T11:00:00,5,28242269,179119
OK,47,44,870,47,2014-10-02T11:05:00,0,28242717,179119
OK,61,34,870,61,2014-10-02T11:15:00,9,28243166,179119
OK,43,48,870,43,2014-10-02T11:20:00,13,28243929,179119
OK,61,34,870,61,2014-10-02T11:25:00,3,28244359,179119
OK,68,30,870,68,2014-10-02T11:30:00,0,28244807,179119
OK,40,52,870,40,2014-10-02T11:35:00,8,28245256,179119
OK,34,61,870,34,2014-10-02T11:40:00,4,28245663,179119
OK,29,72,870,29,2014-10-02T11:45:00,0,28246111,179119
OK,58,36,870,58,2014-10-02T11:50:00,21,28246548,179119
OK,52,40,870,52,2014-10-02T11:55:00,16,28246997,179119
OK,47,44,870,47,2014-10-02T12:00:00,11,28247443,179119
OK,52,40,870,52,2014-10-02T12:05:00,4,28247874,179119
OK,36,58,870,36,2014-10-02T12:10:00,0,28248322,179119
OK,47,44,870,47,2014-10-02T12:15:00,11,28248770,179119
OK,43,48,870,43,2014-10-02T12:20:00,3,28249197,179119
OK,63,33,870,63,2014-10-02T12:25:00,13,28249641,179119
OK,59,35,870,59,2014-10-02T12:30:00,8,28250060,179119
OK,64,32,870,64,2014-10-02T12:35:00,17,28250458,179119
OK,61,34,870,61,2014-10-02T12:45:00,15,28251238,179119
OK,51,41,870,51,2014-10-02T13:20:00,8,28251783,179119
OK,49,42,870,49,2014-10-02T13:30:00,12,28252367,179119
OK,62,33,870,62,2014-10-02T13:35:00,5,28252809,179119
OK,123,17,870,123,2014-10-02T13:40:00,0,28253226,179119
OK,50,42,870,50,2014-10-02T13:45:00,11,28253675,179119
OK,61,34,870,61,2014-10-02T13:50:00,8,28254081,179119
OK,47,44,870,47,2014-10-02T13:55:00,14,28254401,179119
OK,49,42,870,49,2014-10-02T14:10:00,15,28254978,179119
OK,54,39,870,54,2014-10-02T14:15:00,15,28255427,179119
OK,59,35,870,59,2014-10-02T14:20:00,4,28255855,179119
OK,69,30,870,69,2014-10-02T14:25:00,1,28256304,179119
OK,41,51,870,41,2014-10-02T14:30:00,2,28256732,179119
OK,47,44,870,47,2014-10-02T14:35:00,9,28257181,179119
OK,65,32,870,65,2014-10-02T14:40:00,11,28257622,179119
OK,74,28,870,74,2014-10-02T14:45:00,10,28258070,179119
OK,49,42,870,49,2014-10-02T14:50:00,9,28258503,179119
OK,55,38,870,55,2014-10-02T14:55:00,8,28258949,179119
OK,48,43,870,48,2014-10-02T15:00:00,6,28259398,179119
OK,54,39,870,54,2014-10-02T15:05:00,9,28259845,179119
OK,54,39,870,54,2014-10-02T15:10:00,4,28260278,179119
OK,54,39,870,54,2014-10-02T15:15:00,3,28260727,179119
OK,58,36,870,58,2014-10-02T15:20:00,1,28261167,179119
OK,48,43,870,48,2014-10-02T15:25:00,14,28261549,179119
OK,49,42,870,49,2014-10-02T15:30:00,3,28261979,179119
OK,53,39,870,53,2014-10-02T15:35:00,11,28262426,179119
OK,49,42,870,49,2014-10-02T15:40:00,4,28262872,179119
OK,49,42,870,49,2014-10-02T15:45:00,10,28263310,179119
OK,55,38,870,55,2014-10-02T15:50:00,5,28263751,179119
OK,71,29,870,71,2014-10-02T15:55:00,0,28264153,179119
OK,71,29,870,71,2014-10-02T16:00:00,0,28264602,179119
OK,63,33,870,63,2014-10-02T16:05:00,4,28265040,179119
OK,46,45,870,46,2014-10-02T16:10:00,10,28265480,179119